CST,Max TemperatureF,Mean TemperatureF,Min TemperatureF,Max Dew PointF,MeanDew PointF,Min DewpointF,Max Humidity, Mean Humidity, Min Humidity, Max Sea Level PressureIn, Mean Sea Level PressureIn, Min Sea Level PressureIn, Max VisibilityMiles, Mean VisibilityMiles, Min VisibilityMiles, Max Wind SpeedMPH, Mean Wind SpeedMPH, Max Gust SpeedMPH,PrecipitationIn, CloudCover, Events, WindDirDegrees
2011-11-1,71,54,37,36,33,30,81,44,27,30.21,30.15,30.11,10,10,10,17,6,24,0.00,0,,181
2011-11-2,69,58,46,46,40,32,71,51,38,30.17,30.09,29.97,10,10,10,24,11,31,0.00,0,,182
2011-11-3,57,48,39,48,43,37,100,88,51,30.09,29.87,29.72,10,8,3,20,13,28,0.62,8,,280
2011-11-4,51,45,39,43,41,37,100,86,71,30.27,30.20,30.11,10,9,2,14,8,20,0.01,6,,13
2011-11-5,57,45,33,46,41,32,100,86,62,30.22,30.14,30.05,10,6,0,16,5,20,0.00,4,,166
2011-11-6,60,56,51,45,43,39,76,64,48,30.16,30.11,30.04,10,10,10,22,15,31,0.00,5,,185
2011-11-7,69,63,57,57,53,46,94,76,64,30.21,30.16,30.10,10,10,8,14,10,21,0.07,6,,182
2011-11-8,66,62,59,57,54,48,94,76,59,30.05,29.98,29.89,10,10,2,20,13,28,0.68,7,,184
2011-11-9,60,50,39,57,39,28,94,70,50,30.20,29.99,29.74,10,10,10,24,13,36,0.01,5,,275
2011-11-10,48,40,33,28,20,9,70,47,22,30.23,30.19,30.16,10,10,10,24,9,31,0.00,0,,292
2011-11-11,64,44,24,30,25,18,86,50,26,30.16,30.01,29.88,10,10,10,18,6,23,0.00,0,,198
2011-11-12,59,50,42,48,37,27,72,58,43,29.96,29.86,29.74,10,10,10,30,11,40,0.00,2,,184
2011-11-13,73,65,57,61,54,48,88,71,53,29.73,29.68,29.61,10,10,10,30,19,40,0.00,4,,198
2011-11-14,75,65,53,63,54,37,88,65,35,29.84,29.71,29.65,10,10,10,30,15,37,0.03,4,Thunderstorm,226
2011-11-15,59,54,50,55,52,46,100,91,82,29.86,29.82,29.79,10,10,2,12,7,,0.02,7,,191
2011-11-16,55,47,39,48,22,14,82,40,27,30.25,30.09,29.87,10,10,10,18,11,26,0.00,3,,355
2011-11-17,46,38,28,19,13,5,60,38,18,30.39,30.32,30.25,10,10,5,10,5,16,0.00,2,,308
2011-11-18,53,42,32,25,20,16,60,43,22,30.27,30.16,30.01,10,10,10,24,13,31,0.00,0,,181
2011-11-19,60,53,46,54,40,25,82,65,43,30.00,29.95,29.87,10,10,10,22,17,33,0.00,7,,189
2011-11-20,59,48,37,55,42,36,100,94,82,30.21,30.15,30.01,10,4,1,9,7,16,0.62,7,Thunderstorm,16
2011-11-21,46,42,39,46,43,37,100,95,93,30.19,30.15,30.08,5,2,0,9,3,,0.00,8,,15
2011-11-22,48,46,44,46,45,43,100,95,87,30.05,29.91,29.79,10,8,1,16,6,22,0.85,8,Thunderstorm,341
2011-11-23,46,44,42,43,41,39,93,89,81,30.31,30.25,30.12,10,9,5,12,6,16,0.00,8,,303
2011-11-24,55,48,42,45,41,39,93,80,62,30.34,30.29,30.22,10,10,10,20,11,25,0.00,5,,189
2011-11-25,62,52,42,46,43,39,93,72,45,30.18,30.09,29.99,10,10,10,20,15,33,0.00,4,,191
2011-11-26,60,50,41,57,51,39,100,87,77,30.01,29.91,29.82,10,10,5,22,13,29,0.40,7,,195
2011-11-27,39,37,35,37,34,28,93,87,75,30.12,30.03,29.93,10,10,6,16,12,24,0.08,8,,331
2011-11-28,37,34,32,30,29,28,93,82,70,30.09,29.97,29.81,10,9,5,21,11,30,0.22,8,,347
2011-11-29,37,34,30,32,29,25,93,85,70,30.11,29.93,29.76,10,9,2,14,8,25,0.27,6,,327
2011-11-30,44,34,23,25,20,16,86,61,39,30.20,30.15,30.10,10,10,10,8,4,,0.00,0,,289